Regional Weather Roundup
Issued by NWS Mobile, AL

Home | Current Version | Previous Version | Text Only | Print | Product List | Glossary On
Versions: 1 2 3 4 5 6 7 8 9 10 11 12 13 14 15 16 17 18 19 20 21 22 23 24 25 26 27 28 29 30 31 32 33 34 35 36 37 38 39 40 41 42 43 44 45 46 47 48 49 50
000
ASUS44 KMOB 011810
RWRMOB
REGIONAL WEATHER ROUNDUP
NATIONAL WEATHER SERVICE MOBILE AL
1200 PM CST SUN FEB 01 2015

NOTE: "FAIR" INDICATES FEW OR NO CLOUDS BELOW 12,000 FEET WITH NO
      SIGNIFICANT WEATHER AND/OR OBSTRUCTIONS TO VISIBILITY.

  * THESE STATIONS ARE PART OF THE UNIVERSITY OF SOUTH ALABAMA
    MESONET AND ARE NOT UNDER NWS OR FAA QUALITY CONTROL.

ALZ061>064-011900-
COASTAL ALABAMA

CITY           SKY/WX    TMP DP  RH WIND       PRES   REMARKS
MOBILE REG APT LGT RAIN  62  61  96 S6        29.99F FOG
6HR MIN TEMP:  49; 6HR MAX TEMP:  62; 6HR PCP:  0.13;

BROOKLEY FIELD RAIN      62  61  96 S7        30.00F FOG
6HR MIN TEMP:  51; 6HR MAX TEMP:  62; 6HR PCP:  0.11;

USA CAMPUS*    NOT AVBL
DOG RIVER*     NOT AVBL


CITY           SKY/WX    TMP DP  RH WIND       PRES   REMARKS
MOUNT VERNON*  NOT AVBL
SARALAND*      NOT AVBL
BAY MINETTE*   NOT AVBL
LOXLEY*        NOT AVBL
ROBERTSDALE*   NOT AVBL
FAIRHOPE*        N/A     64  63  94 S8        30.00F
ELBERTA*         N/A     64  63  94 SE9       30.01F
FOLEY*         NOT AVBL
GRAND BAY*     NOT AVBL
DAUPHIN ISLND* NOT AVBL
BON SCOUR NWR* NOT AVBL
GULF SHORES    LGT RAIN  64  63  97 S9        30.01F

$$

ALZ051>060-011900-
INTERIOR SOUTHWEST AND SOUTH CENTRAL ALABAMA

CITY           SKY/WX    TMP DP  RH WIND       PRES   REMARKS
GREENVILLE     LGT RAIN  55  53  93 SE5       30.02F
6HR MIN TEMP:  43; 6HR MAX TEMP:  55; 6HR PCP:  0.03;

EVERGREEN      CLOUDY    57  54  89 SE5       30.02F
6HR MIN TEMP:  37; 6HR MAX TEMP:  57; 6HR PCP: TRACE;

CASTLEBERRY*   NOT AVBL
ATMORE*          N/A     59  57  94 SE2       30.02F
DIXIE*           N/A     64  59  82 SE3       30.00F
ANDALUSIA/OPP  CLOUDY    68  56  65 VRB7      30.02F
6HR MIN TEMP:  49; 6HR MAX TEMP:  68;

ANDALUSIA*       N/A     63  57  82 SE7       30.02F
FLORALA APT    CLOUDY    67  58  72 S8        30.05F
6HR MIN TEMP:  43; 6HR MAX TEMP:  68;

FLORALA*         N/A     66  59  77 SE6       30.02F

$$

FLZ001>006-011900-
WESTERN FLORIDA PANHANDLE

CITY           SKY/WX    TMP DP  RH WIND       PRES   REMARKS
PENSACOLA      RAIN      64  62  93 S14       30.00F FOG
6HR MIN TEMP:  55; 6HR MAX TEMP:  71; 6HR PCP:  0.02;

NAS PENSACOLA  RAIN      65  63  93 S16       30.01F VSB 3/4
6HR MIN TEMP:  62; 6HR MAX TEMP:  71; 6HR PCP:  0.12;

MILTON         LGT RAIN  65  62  90 S12       30.01F FOG
6HR MIN TEMP:  48; 6HR MAX TEMP:  70; 6HR PCP: TRACE;

WHTNG S FIELD  LGT RAIN  67  63  87 S6        30.01F FOG
6HR MIN TEMP:  49; 6HR MAX TEMP:  72; 6HR PCP:  0.03;



CITY           SKY/WX    TMP DP  RH WIND       PRES   REMARKS
WALNUT HILL*   NOT AVBL
JAY*           NOT AVBL
DUKE FIELD     RAIN      65  61  86 SE13      30.03F
CRESTVIEW      LGT RAIN  67  61  81 S13G18    30.05F
6HR MIN TEMP:  44; 6HR MAX TEMP:  71; 6HR PCP: TRACE;

VALPARAISO     LGT RAIN  66  61  85 SE13      30.02F
6HR MIN TEMP:  52; 6HR MAX TEMP:  69; 6HR PCP: TRACE;

DESTIN         CLOUDY    66  61  84 S8G21     30.03F
6HR MIN TEMP:  53; 6HR MAX TEMP:  68;


$$

MSZ076-079-011900-
INTERIOR SOUTHEAST MISSISSIPPI

CITY           SKY/WX    TMP DP  RH WIND       PRES   REMARKS
LEAKESVILLE*   NOT AVBL
AGRICOLA*      NOT AVBL

$$

MARINE OBSERVATIONS

STATION/POSITION TIME  TEMP    WIND        PRES    WAVE
                       AIR SEA DIR/SP/G            HT/PER
                 (UTC) (F)     (DEG/KT/KT) (MB)    (FT/S)
PASCAGOULA       1800   63     200/  6/ 11 1015.5F
PETIT BOIS ISLND 1800   65     180/ 14/ 16 1015.8F
GRAND BAY        1700   59     150/  8     1018.0S
KATRINA CUT      1700   62     170/ 11     1016.9F
CEDAR POINT      1700   62     160/ 12     1015.9F
E DAUPHIN ISLAND 1700   63     170/  7/  8 1016.9F
MIDDLE BAY LIGHT 1700   58     150/ 11     1015.6F
USCG MOBILE BAY  1800   60 55  190/  5/  9 1014.7F
STATE DOCKS      1800   62 51              1015.7F
MEAHER PARK      1700   64     150/ 12     1016.3F
WEEKS BAY        1700   66                   N/A
FORT MORGAN      1800   64     200/ 17/ 18 1015.5F
12 S ORANGE BCH  1800   64 62  180/ 16/ 19 1015.9F   6/ 7
PENSACOLA BAY    1800   66 58  170/  9/ 11 1016.3F
64 S DAUPHIN ISL 1750   69 69  160/ 17/ 19 1016.2F   7/ 7

$$

SELECTED LOCATIONS ACROSS THE REGION

CITY           SKY/WX    TMP DP  RH WIND       PRES   REMARKS
NEW ORLEANS    PTSUNNY   72  63  73 S9        29.98F
GULFPORT       CLOUDY    64  62  93 VRB6      30.00F
PASCAGOULA AP  CLOUDY    64  63  96 SW3       30.00S
PASCAGOULA*    NOT AVBL
HATTIESBURG    CLOUDY    66  60  81 S13       29.97F
LAUREL         CLOUDY    64  57  77 S15       29.97F
MERIDIAN       CLOUDY    59  54  83 S13G23    29.95F
JACKSON        CLOUDY    64  58  80 SW13G24   29.92F
MONTGOMERY     LGT RAIN  53  50  89 NE3       30.06F
TROY           CLOUDY    57  50  77 E7        30.06F
KINSTON*       NOT AVBL
GENEVA*        NOT AVBL
ASHFORD*         N/A     63  57  82 SE7       30.02F
DOTHAN         CLOUDY    65  53  65 S12       30.11F
PANAMA CITY    CLOUDY    66  57  72 SE17G26   30.08F

$$




USA.gov is the U.S. government's official web portal to all federal, state and local government web resources and services.